WA6MEM Weather Reports


Display with metric or nautical units.
time (UTC)temp
F
wind
direction
speed
MPH
gust
MPH
rain 1hr
in
rain 24hr
in
rain mn
in
humidity
%
barometer
mb
20260904054008 61 270 0.0 0.0 0.00 0.00 0.01 94 1010.4
20260904053508 61 270 0.0 0.0 0.00 0.00 0.01 94 1010.4
20260904053008 61 270 0.0 0.0 0.00 0.00 0.01 94 1010.4
20260904052508 61 270 1.0 0.0 0.00 0.00 0.01 94 1010.4
20260904052009 61 270 1.0 0.0 0.00 0.00 0.01 94 1010.4
20260904051508 61 237 1.0 0.0 0.00 0.00 0.01 94 1010.4
20260904051010 61 237 1.0 0.0 0.00 0.00 0.01 94 1010.7
20260904050507 61 251 0.0 0.0 0.00 0.00 0.01 94 1010.7
20260904050010 61 251 0.0 0.0 0.00 0.00 0.01 94 1010.7
20260904045507 61 251 1.0 0.0 0.00 0.00 0.01 94 1010.6
20260904045011 61 144 1.0 0.0 0.00 0.00 0.01 94 1010.6
20260904044508 62 211 1.0 0.0 0.00 0.00 0.01 94 1010.6
20260904044008 62 200 1.0 0.0 0.00 0.00 0.01 94 1010.5
20260904043506 62 217 1.0 0.0 0.00 0.00 0.01 94 1010.5
20260904043006 62 213 1.0 0.0 0.00 0.00 0.01 94 1010.5
20260904042506 62 229 1.0 0.0 0.00 0.00 0.01 93 1010.5
20260904042007 62 284 1.0 0.0 0.00 0.00 0.01 93 1010.5
20260904041506 62 221 2.0 0.0 0.00 0.00 0.01 93 1010.5
20260904041007 62 284 2.0 0.0 0.00 0.00 0.01 93 1010.6
20260904040507 62 276 2.0 0.0 0.00 0.00 0.01 93 1010.6
20260904040007 62 281 2.0 0.0 0.00 0.00 0.01 93 1010.6
20260904035506 62 325 2.0 0.0 0.00 0.00 0.01 93 1010.5
20260904035005 62 227 2.0 0.0 0.00 0.00 0.01 93 1010.5
20260904034505 62 275 2.0 0.0 0.00 0.00 0.01 93 1010.5
20260904034005 62 263 3.0 0.0 0.00 0.00 0.01 93 1010.2
20260904033505 62 267 2.0 0.0 0.00 0.00 0.01 93 1010.2
20260904033005 62 284 1.0 0.0 0.00 0.00 0.01 93 1010.2
20260904032504 62 166 1.0 0.0 0.00 0.00 0.01 93 1010.1
20260904032004 62 264 1.0 0.0 0.00 0.00 0.01 93 1010.1
20260904031504 62 275 1.0 0.0 0.00 0.00 0.01 93 1010.1
20260904031004 62 259 1.0 0.0 0.00 0.00 0.01 92 1010.1
20260904030504 62 202 2.0 0.0 0.00 0.00 0.01 92 1010.1
20260904030012 63 216 2.0 0.0 0.00 0.00 0.01 92 1010.1
20260904025504 63 154 2.0 0.0 0.00 0.00 0.01 92 1010.0
20260904025004 63 200 1.0 0.0 0.00 0.00 0.01 92 1010.0
20260904024504 63 175 2.0 0.0 0.00 0.00 0.01 92 1010.0
20260904024004 63 185 2.0 0.0 0.00 0.00 0.01 91 1010.0
20260904023504 63 182 2.0 0.0 0.00 0.00 0.01 91 1010.0
20260904023003 63 196 2.0 0.0 0.00 0.00 0.01 91 1010.0
20260904022503 63 171 2.0 0.0 0.00 0.00 0.01 90 1010.0
20260904022004 63 180 2.0 0.0 0.00 0.00 0.01 90 1010.0
20260904021507 64 185 2.0 0.0 0.00 0.00 0.01 89 1010.0
20260904021003 64 161 2.0 0.0 0.00 0.00 0.01 88 1010.1
20260904020506 64 206 1.0 0.0 0.00 0.00 0.01 87 1010.1
20260904020003 64 360 2.0 0.0 0.00 0.00 0.01 87 1010.1
20260904015506 64 182 3.0 0.0 0.00 0.00 0.01 85 1010.2
20260904015002 64 215 2.0 0.0 0.00 0.00 0.01 85 1010.2
20260904014505 65 202 2.0 0.0 0.00 0.00 0.01 85 1010.2
20260904014002 65 197 2.0 0.0 0.00 0.00 0.01 85 1010.1
20260904013501 65 157 3.0 0.0 0.00 0.00 0.01 84 1010.1
20260904013002 65 212 3.0 0.0 0.00 0.00 0.01 83 1010.1
20260904012502 66 227 3.0 0.0 0.00 0.00 0.01 82 1010.1
20260904012002 66 202 3.0 0.0 0.00 0.00 0.01 82 1010.1
20260904011503 67 192 3.0 0.0 0.00 0.00 0.01 82 1010.1
20260904011001 67 163 3.0 0.0 0.00 0.00 0.01 81 1010.0
20260904010503 67 241 3.0 0.0 0.00 0.00 0.01 80 1010.0
20260904010001 68 200 3.0 0.0 0.00 0.00 0.01 80 1010.0
20260904005601 68 205 3.0 0.0 0.00 0.00 0.01 79 1010.1
20260904005100 68 205 3.0 0.0 0.00 0.00 0.01 78 1010.1
20260904004600 68 228 3.0 0.0 0.00 0.00 0.01 79 1010.1
20260904004100 68 360 3.0 0.0 0.00 0.00 0.01 77 1010.2
20260904003559 68 229 4.0 0.0 0.00 0.00 0.01 79 1010.2
20260904003059 68 223 4.0 0.0 0.00 0.00 0.01 78 1010.2
20260904002559 68 233 4.0 0.0 0.00 0.00 0.01 79 1010.3
20260904002059 68 360 5.0 0.0 0.00 0.00 0.01 79 1010.3
20260904001559 68 177 5.0 0.0 0.00 0.00 0.01 79 1010.3
20260904001058 69 203 4.0 0.0 0.00 0.00 0.01 79 1010.3
20260904000601 69 222 4.0 0.0 0.00 0.00 0.01 79 1010.3
20260904000058 69 185 3.0 0.0 0.00 0.00 0.01 79 1010.3
20260903235558 69 142 3.0 0.0 0.00 0.00 0.01 79 1010.4
20260903235057 69 199 4.0 0.0 0.00 0.00 0.01 79 1010.4
20260903234558 70 217 4.0 0.0 0.00 0.00 0.01 79 1010.4
20260903234057 70 216 4.0 0.0 0.00 0.00 0.01 79 1010.4
20260903233556 70 155 3.0 0.0 0.00 0.00 0.01 80 1010.4
20260903233056 69 217 3.0 0.0 0.00 0.00 0.01 81 1010.4
20260903232556 69 150 4.0 0.0 0.00 0.00 0.01 81 1010.5
20260903232056 69 180 5.0 0.0 0.00 0.00 0.01 81 1010.5
20260903231605 69 211 4.0 0.0 0.00 0.00 0.01 80 1010.5
20260903231055 69 177 4.0 0.0 0.00 0.00 0.01 82 1010.6
20260903230555 69 148 4.0 0.0 0.00 0.00 0.01 80 1010.6
20260903230056 69 209 4.0 0.0 0.00 0.00 0.01 79 1010.6
20260903225555 70 150 4.0 0.0 0.00 0.00 0.01 79 1010.7
20260903225054 70 360 4.0 0.0 0.00 0.00 0.01 78 1010.7
20260903224555 70 219 4.0 0.0 0.00 0.00 0.01 80 1010.7
20260903224053 70 360 4.0 0.0 0.00 0.00 0.01 78 1010.9
20260903223554 70 200 4.0 0.0 0.00 0.00 0.01 78 1010.9
20260903223057 70 134 4.0 0.0 0.00 0.00 0.01 79 1010.9
20260903222554 70 202 4.0 0.0 0.00 0.00 0.01 79 1011.1
20260903222053 70 225 4.0 0.0 0.00 0.00 0.01 80 1011.1
20260903221553 70 208 3.0 0.0 0.00 0.00 0.01 80 1011.1
20260903221052 70 129 3.0 0.0 0.00 0.00 0.01 81 1011.2
20260903220552 69 172 3.0 0.0 0.00 0.00 0.01 80 1011.2
20260903220112 69 179 4.0 0.0 0.00 0.00 0.01 80 1011.2
20260903215552 70 172 4.0 0.0 0.00 0.00 0.01 79 1011.2
20260903215050 71 148 3.0 0.0 0.00 0.00 0.01 79 1011.2
20260903214550 71 213 4.0 0.0 0.00 0.00 0.01 80 1011.2
20260903214050 71 190 4.0 0.0 0.00 0.00 0.01 79 1011.2
20260903213552 71 201 3.0 0.0 0.00 0.00 0.01 78 1011.2
20260903213050 71 238 4.0 0.0 0.00 0.00 0.01 79 1011.2
20260903212549 70 240 4.0 0.0 0.00 0.00 0.01 78 1011.3
20260903212050 71 205 3.0 0.0 0.00 0.00 0.01 79 1011.3
20260903211554 70 170 3.0 0.0 0.00 0.00 0.01 80 1011.3
20260903211049 70 229 3.0 0.0 0.00 0.00 0.01 82 1011.4
20260903210548 70 167 3.0 0.0 0.00 0.00 0.01 81 1011.4
20260903210048 70 269 3.0 0.0 0.00 0.00 0.01 81 1011.4
20260903205547 70 232 3.0 0.0 0.00 0.00 0.01 81 1011.5
20260903205051 70 214 4.0 0.0 0.00 0.00 0.01 82 1011.5
20260903204547 70 169 4.0 0.0 0.00 0.00 0.01 82 1011.5
20260903204045 69 159 3.0 0.0 0.00 0.00 0.01 81 1011.6
20260903203545 69 217 3.0 0.0 0.00 0.00 0.01 82 1011.6
20260903203045 69 209 4.0 0.0 0.00 0.00 0.01 81 1011.6
20260903202546 69 183 4.0 0.0 0.00 0.00 0.01 82 1011.7
20260903202045 69 132 4.0 0.0 0.00 0.00 0.01 82 1011.7
20260903201545 69 162 4.0 0.0 0.00 0.00 0.01 82 1011.7
20260903201044 69 217 4.0 0.0 0.00 0.00 0.01 81 1011.8
20260903200547 70 178 3.0 0.0 0.00 0.00 0.01 80 1011.8
20260903200045 70 178 3.0 0.0 0.00 0.00 0.01 81 1011.8
20260903195544 70 219 4.0 0.0 0.00 0.00 0.01 80 1011.9
20260903195044 70 146 4.0 0.0 0.00 0.00 0.01 80 1011.9
20260903194543 70 155 4.0 0.0 0.00 0.00 0.01 79 1011.9
20260903194046 70 190 4.0 0.0 0.00 0.00 0.01 80 1012.0
20260903193542 70 183 4.0 0.0 0.00 0.00 0.01 80 1012.0
20260903193042 70 213 4.0 0.0 0.00 0.00 0.01 79 1012.0
20260903192542 70 163 3.0 0.0 0.00 0.00 0.01 79 1012.2
20260903192044 71 168 4.0 0.0 0.00 0.00 0.01 79 1012.2
20260903191551 71 151 4.0 0.0 0.00 0.00 0.01 79 1012.2
20260903191041 71 168 3.0 0.0 0.00 0.00 0.01 78 1012.4
20260903190541 71 168 3.0 0.0 0.00 0.00 0.01 78 1012.4
20260903190041 71 181 3.0 0.0 0.00 0.00 0.01 78 1012.4
20260903185539 71 162 3.0 0.0 0.00 0.00 0.01 79 1012.5
20260903185039 71 196 3.0 0.0 0.00 0.00 0.01 78 1012.5
20260903184544 70 145 3.0 0.0 0.00 0.00 0.01 79 1012.5
20260903184037 70 167 3.0 0.0 0.00 0.00 0.01 79 1012.8
20260903183536 70 176 4.0 0.0 0.00 0.00 0.01 79 1012.8
20260903183037 70 251 4.0 0.0 0.00 0.00 0.01 78 1012.8
20260903182538 70 148 3.0 0.0 0.00 0.00 0.01 78 1013.0
20260903182037 70 166 4.0 0.0 0.00 0.00 0.01 79 1013.0
20260903181535 69 202 4.0 0.0 0.00 0.00 0.01 79 1013.0
20260903181034 69 150 3.0 0.0 0.00 0.00 0.01 78 1012.9
20260903180534 70 181 3.0 0.0 0.00 0.00 0.01 78 1012.9
20260903180044 69 191 2.0 0.0 0.00 0.00 0.01 81 1012.9
20260903175532 69 177 3.0 0.0 0.00 0.00 0.01 81 1012.8
20260903175030 69 173 2.0 0.0 0.00 0.00 0.01 83 1012.8
20260903174529 68 198 2.0 0.0 0.00 0.00 0.01 84 1012.8
20260903174029 68 200 2.0 0.0 0.00 0.00 0.01 84 1013.1
20260903173525 67 214 2.0 0.0 0.00 0.00 0.01 85 1013.1
20260903173025 67 181 3.0 0.0 0.00 0.00 0.01 85 1013.1
20260903172527 67 251 3.0 0.0 0.00 0.00 0.01 84 1013.1
20260903172024 67 159 3.0 0.0 0.00 0.00 0.01 85 1013.1
20260903171523 66 190 2.0 0.0 0.00 0.00 0.01 86 1013.1
20260903171022 66 235 2.0 0.0 0.00 0.00 0.01 86 1012.9
20260903170521 66 161 2.0 0.0 0.00 0.00 0.01 85 1012.9
20260903170021 66 158 1.0 0.0 0.00 0.00 0.01 86 1012.9
20260903165520 66 165 1.0 0.0 0.00 0.00 0.01 85 1012.9
20260903165020 66 169 2.0 0.0 0.00 0.00 0.01 86 1012.9
20260903164520 66 173 2.0 0.0 0.00 0.00 0.01 86 1012.9
20260903164019 66 198 2.0 0.0 0.00 0.00 0.01 88 1012.8
20260903163517 65 121 1.0 0.0 0.00 0.00 0.01 91 1012.8
20260903163016 65 198 1.0 0.0 0.00 0.00 0.01 91 1012.8
20260903162515 64 181 1.0 0.0 0.00 0.00 0.01 92 1013.0
20260903162014 64 144 1.0 0.0 0.00 0.00 0.01 92 1013.0
20260903161513 63 198 1.0 0.0 0.00 0.00 0.01 93 1013.0
20260903161012 63 189 1.0 0.0 0.00 0.00 0.01 93 1013.0
20260903160512 63 190 1.0 0.0 0.00 0.00 0.01 93 1013.0
20260903160015 62 198 2.0 0.0 0.00 0.00 0.01 93 1013.0
20260903155513 62 204 3.0 0.0 0.00 0.00 0.01 93 1012.9
20260903155011 63 196 2.0 0.0 0.00 0.00 0.01 93 1012.9
20260903154511 63 227 2.0 0.0 0.00 0.00 0.01 94 1012.9
20260903154012 63 186 2.0 0.0 0.00 0.00 0.01 94 1012.8
20260903153510 63 178 1.0 0.0 0.00 0.00 0.01 95 1012.8
20260903153010 63 206 2.0 0.0 0.00 0.00 0.01 95 1012.8
20260903152511 63 123 1.0 0.0 0.00 0.00 0.01 95 1012.8
20260903152011 63 150 1.0 0.0 0.00 0.00 0.01 96 1012.8
20260903151509 63 194 1.0 0.0 0.00 0.00 0.01 96 1012.8
20260903151010 62 172 1.0 0.0 0.00 0.00 0.01 96 1012.9
20260903150511 62 137 1.0 0.0 0.00 0.00 0.01 96 1012.9
20260903150013 62 164 0.0 0.0 0.00 0.00 0.01 97 1012.9
20260903145510 62 190 0.0 0.0 0.00 0.00 0.01 97 1012.9
20260903145009 62 180 0.0 0.0 0.00 0.00 0.01 97 1012.9
20260903144509 61 224 0.0 0.0 0.00 0.00 0.01 96 1012.9
20260903144009 61 153 0.0 0.0 0.00 0.00 0.01 97 1012.7
20260903143508 61 153 0.0 0.0 0.00 0.00 0.01 97 1012.7
20260903143009 61 221 1.0 0.0 0.00 0.00 0.01 97 1012.7
20260903142508 61 180 1.0 0.0 0.00 0.00 0.01 97 1012.5
20260903142008 60 160 0.0 0.0 0.00 0.00 0.01 97 1012.5
20260903141510 60 184 0.0 0.0 0.00 0.00 0.01 96 1012.5
20260903141008 60 169 0.0 0.0 0.00 0.00 0.01 96 1012.4
20260903140508 60 169 0.0 0.0 0.00 0.00 0.01 96 1012.4
20260903140016 60 169 0.0 0.0 0.00 0.00 0.01 96 1012.4
20260903135507 60 169 0.0 0.0 0.00 0.00 0.01 96 1012.4
20260903135011 60 169 0.0 0.0 0.00 0.00 0.01 96 1012.4
20260903134506 60 169 0.0 0.0 0.00 0.00 0.01 96 1012.4
20260903134009 60 169 0.0 0.0 0.00 0.00 0.01 96 1012.3
20260903133506 60 169 0.0 0.0 0.00 0.00 0.01 96 1012.3
20260903133006 60 169 0.0 0.0 0.00 0.00 0.01 96 1012.3
20260903132505 60 169 0.0 0.0 0.00 0.00 0.01 96 1012.4
20260903132005 60 169 0.0 0.0 0.00 0.00 0.01 96 1012.4
20260903131505 60 169 0.0 0.0 0.00 0.00 0.01 96 1012.4
20260903131005 60 169 0.0 0.0 0.00 0.00 0.01 96 1012.2
20260903130504 60 169 0.0 0.0 0.00 0.00 0.01 96 1012.2
20260903130005 60 169 0.0 0.0 0.00 0.00 0.01 96 1012.2
20260903125504 60 202 0.0 0.0 0.00 0.00 0.01 96 1012.2
20260903125006 60 202 1.0 0.0 0.00 0.00 0.01 96 1012.2
20260903124505 60 194 0.0 0.0 0.00 0.00 0.01 96 1012.2
20260903124003 60 190 1.0 0.0 0.00 0.00 0.01 96 1012.1
20260903123505 60 202 1.0 0.0 0.00 0.00 0.01 96 1012.1
20260903123003 60 175 1.0 0.0 0.00 0.00 0.01 96 1012.1
20260903122503 60 190 1.0 0.0 0.00 0.00 0.01 96 1012.1
20260903122002 60 190 1.0 0.0 0.00 0.00 0.01 96 1012.1
20260903121502 60 153 0.0 0.0 0.00 0.00 0.01 96 1012.1
20260903121001 60 196 0.0 0.0 0.00 0.00 0.01 96 1012.1
20260903120503 60 196 0.0 0.0 0.00 0.00 0.01 96 1012.1
20260903120002 61 196 1.0 0.0 0.00 0.00 0.01 96 1012.1
20260903115600 61 196 1.0 0.0 0.00 0.00 0.01 96 1012.1
20260903115100 61 205 1.0 0.0 0.00 0.00 0.01 96 1012.1
20260903114600 61 152 1.0 0.0 0.00 0.00 0.01 96 1012.1
20260903114058 61 197 1.0 0.0 0.00 0.00 0.01 96 1012.3
20260903113600 61 154 1.0 0.0 0.00 0.00 0.01 96 1012.3
20260903113100 61 188 1.0 0.0 0.00 0.00 0.01 96 1012.3
20260903112603 61 184 1.0 0.0 0.00 0.00 0.01 96 1012.3
20260903112058 61 163 1.0 0.0 0.00 0.00 0.01 96 1012.3
20260903111606 61 188 1.0 0.0 0.00 0.00 0.01 96 1012.3
20260903111058 61 183 1.0 0.0 0.00 0.00 0.01 96 1012.2
20260903110601 61 162 1.0 0.0 0.00 0.00 0.01 96 1012.2
20260903110058 61 172 1.0 0.0 0.00 0.00 0.01 95 1012.2
20260903105600 61 194 1.0 0.0 0.00 0.00 0.01 95 1012.2
20260903105057 61 161 1.0 0.0 0.00 0.00 0.01 95 1012.2
20260903104557 61 163 1.0 0.0 0.00 0.00 0.01 95 1012.2
20260903104055 61 174 2.0 0.0 0.00 0.00 0.01 95 1012.3
20260903103555 61 199 2.0 0.0 0.00 0.00 0.01 95 1012.3
20260903103057 62 206 2.0 0.0 0.00 0.00 0.01 95 1012.3
20260903102555 62 196 2.0 0.0 0.00 0.00 0.01 95 1012.4
20260903102056 62 179 2.0 0.0 0.00 0.00 0.01 95 1012.4
20260903101559 62 201 2.0 0.0 0.00 0.00 0.01 95 1012.4
20260903101053 62 175 2.0 0.0 0.00 0.00 0.01 95 1012.2
20260903100553 62 196 2.0 0.0 0.00 0.00 0.01 95 1012.2
20260903100055 62 204 2.0 0.0 0.00 0.00 0.01 95 1012.2
20260903095552 62 175 2.0 0.0 0.00 0.00 0.00 95 1012.2
20260903095052 62 211 2.0 0.0 0.00 0.00 0.00 95 1012.2
20260903094601 62 213 2.0 0.0 0.00 0.00 0.00 95 1012.2
20260903094052 62 204 2.0 0.0 0.00 0.00 0.00 95 1012.3
20260903093551 62 167 3.0 0.0 0.00 0.00 0.00 95 1012.3
20260903093103 62 178 3.0 0.0 0.00 0.00 0.00 95 1012.3
20260903092551 62 158 2.0 0.0 0.00 0.00 0.00 95 1012.4
20260903092051 62 200 2.0 0.0 0.00 0.00 0.00 95 1012.4
20260903091550 62 182 2.0 0.0 0.00 0.00 0.00 95 1012.4
20260903091050 62 198 2.0 0.0 0.00 0.00 0.00 95 1012.7
20260903090550 62 161 2.0 0.0 0.00 0.00 0.00 95 1012.7
20260903090050 62 196 2.0 0.0 0.00 0.00 0.00 95 1012.7
20260903085548 62 196 2.0 0.0 0.00 0.00 0.00 95 1012.9
20260903085049 62 190 2.0 0.0 0.00 0.00 0.00 94 1012.9
20260903084549 62 187 2.0 0.0 0.00 0.00 0.00 94 1012.9
20260903084048 62 192 2.0 0.0 0.00 0.00 0.00 94 1012.9
20260903083548 62 158 2.0 0.0 0.00 0.00 0.00 94 1012.9
20260903083053 62 197 3.0 0.0 0.00 0.00 0.00 94 1012.9
20260903082548 62 184 2.0 0.0 0.00 0.00 0.00 94 1012.9
20260903082148 62 237 2.0 0.0 0.00 0.00 0.00 94 1012.9
20260903081549 62 167 2.0 0.0 0.00 0.00 0.00 94 1012.9
20260903081048 62 143 2.0 0.0 0.00 0.00 0.00 94 1013.0
20260903080548 62 180 2.0 0.0 0.00 0.00 0.00 94 1013.0
20260903080050 62 127 2.0 0.0 0.00 0.00 0.00 94 1013.0
20260903075546 62 163 3.0 0.0 0.00 0.00 0.00 94 1012.9
20260903075045 62 205 3.0 0.0 0.00 0.00 0.00 94 1012.9
20260903074546 63 245 4.0 0.0 0.00 0.00 0.00 93 1012.9
20260903074044 63 257 4.0 0.0 0.00 0.00 0.00 93 1013.0
20260903073544 63 257 5.0 0.0 0.00 0.00 0.00 93 1013.0
20260903073044 63 294 5.0 0.0 0.00 0.00 0.00 93 1013.0
20260903072542 63 306 5.0 0.0 0.00 0.00 0.00 93 1012.9
20260903072042 63 299 5.0 0.0 0.00 0.00 0.00 93 1012.9
20260903071542 63 297 4.0 0.0 0.00 0.00 0.00 93 1012.9
20260903071040 63 256 5.0 0.0 0.00 0.00 0.00 92 1012.9
20260903070544 63 279 5.0 0.0 0.00 0.00 0.00 92 1012.9
20260903070040 63 290 4.0 0.0 0.00 0.00 0.00 92 1012.9
20260903065540 63 245 4.0 0.0 0.00 0.00 0.00 92 1013.0
20260903065039 62 229 4.0 0.0 0.00 0.00 0.00 91 1013.0
20260903064541 62 288 3.0 0.0 0.00 0.00 0.00 91 1013.0
20260903064039 62 302 3.0 0.0 0.00 0.00 0.00 92 1012.8
20260903063539 62 287 3.0 0.0 0.00 0.00 0.00 92 1012.8
20260903063039 62 160 3.0 0.0 0.00 0.00 0.00 93 1012.8
20260903062539 62 196 3.0 0.0 0.00 0.00 0.00 93 1012.9
20260903062039 62 218 3.0 0.0 0.00 0.00 0.00 93 1012.9
20260903061550 62 188 3.0 0.0 0.00 0.00 0.00 93 1012.9
20260903061038 62 180 3.0 0.0 0.00 0.00 0.00 93 1012.8
20260903060538 63 157 3.0 0.0 0.00 0.00 0.00 93 1012.8
20260903060041 63 186 3.0 0.0 0.00 0.00 0.00 93 1012.8
20260903055538 63 214 3.0 0.0 0.00 0.00 0.00 93 1012.8
20260903055037 63 177 3.0 0.0 0.00 0.00 0.00 93 1012.8
20260903054541 63 271 3.0 0.0 0.00 0.00 0.00 93 1012.8